FW0344 Weather Reports


time (UTC)temp
F
wind
direction
speed
knots
gust
knots
rain 1hr
in
rain 24hr
in
rain mn
in
humidity
%
barometer
mb
20260510175425 57 40 7.8 13.9 0.00 0.00 0.00 63 1012.3
20260510174504 57 45 8.7 15.6 0.00 0.00 0.00 63 1012.5
20260510173604 58 39 7.0 15.6 0.00 0.00 0.00 63 1012.6
20260510172704 58 32 6.1 12.2 0.00 0.00 0.00 64 1012.3
20260510171804 58 42 7.0 13.0 0.00 0.00 0.00 63 1012.3
20260510170904 59 40 7.8 14.8 0.00 0.00 0.00 62 1012.4
20260510170004 59 42 7.8 14.8 0.00 0.00 0.00 62 1012.5
20260510165404 60 43 8.7 16.5 0.00 0.00 0.00 61 1012.5
20260510164504 60 49 8.7 16.5 0.00 0.00 0.00 62 1012.5
20260510163604 59 50 8.7 16.5 0.00 0.00 0.00 63 1012.6
20260510162725 59 45 9.6 16.5 0.00 0.00 0.00 62 1012.7
20260510161804 60 46 7.8 15.6 0.00 0.00 0.00 61 1012.8
20260510160904 60 42 7.0 13.0 0.00 0.00 0.00 62 1012.7
20260510160004 61 42 7.0 16.5 0.00 0.00 0.00 61 1012.7
20260510155425 60 49 7.8 16.5 0.00 0.00 0.00 62 1012.9
20260510154504 60 35 7.8 17.4 0.00 0.00 0.00 63 1012.8
20260510153604 60 48 8.7 17.4 0.00 0.00 0.00 62 1012.8
20260510152704 60 51 8.7 15.6 0.00 0.00 0.00 63 1012.8
20260510151804 59 50 8.7 15.6 0.00 0.00 0.00 64 1012.9
20260510150925 60 48 7.8 14.8 0.00 0.00 0.00 63 1013.1
20260510150004 60 36 7.8 19.1 0.00 0.00 0.00 62 1013.0
20260510145404 60 35 7.0 13.0 0.00 0.00 0.00 62 1013.0
20260510144504 60 32 7.0 16.5 0.00 0.00 0.00 63 1013.2
20260510143604 60 42 7.8 16.5 0.00 0.00 0.00 62 1013.2
20260510142704 60 44 7.8 15.6 0.00 0.00 0.00 60 1013.2
20260510141804 60 44 8.7 19.1 0.00 0.00 0.00 60 1013.2
20260510140904 60 39 9.6 18.2 0.00 0.00 0.00 61 1013.3
20260510140004 60 32 7.8 16.5 0.00 0.00 0.00 61 1013.4
20260510135425 60 32 8.7 16.5 0.00 0.00 0.00 61 1013.5
20260510134504 61 40 7.0 14.8 0.00 0.00 0.00 60 1013.4
20260510133604 61 43 7.8 17.4 0.00 0.00 0.00 61 1013.5
20260510132704 60 47 9.6 18.2 0.00 0.00 0.00 60 1013.5
20260510131803 61 48 8.7 18.2 0.00 0.00 0.00 59 1013.7
20260510130903 61 43 7.8 13.9 0.00 0.00 0.00 60 1013.6
20260510130004 61 42 7.8 17.4 0.00 0.00 0.00 60 1013.7
20260510125404 61 44 7.8 13.9 0.00 0.00 0.00 60 1013.7
20260510124503 61 50 7.8 14.8 0.00 0.00 0.00 59 1013.8
20260510123603 62 55 7.0 14.8 0.00 0.00 0.00 59 1013.8
20260510122703 63 61 8.7 16.5 0.00 0.00 0.00 58 1013.9
20260510121803 62 58 8.7 16.5 0.00 0.00 0.00 58 1013.9
20260510120903 62 48 8.7 17.4 0.00 0.00 0.00 58 1014.2
20260510120004 62 44 9.6 16.5 0.00 0.00 0.00 58 1014.2
20260510115404 62 49 9.6 16.5 0.00 0.00 0.00 58 1014.3
20260510114504 61 48 8.7 17.4 0.00 0.00 0.00 60 1014.4
20260510113603 60 49 10.4 20.9 0.00 0.00 0.00 60 1014.4
20260510112703 60 53 10.4 18.2 0.00 0.00 0.00 60 1014.7
20260510111803 59 52 9.6 18.2 0.00 0.00 0.00 61 1014.8
20260510110924 59 55 10.4 19.1 0.00 0.00 0.00 60 1014.9
20260510110004 60 49 10.4 20.0 0.00 0.00 0.00 59 1014.8
20260510105424 61 47 10.4 20.0 0.00 0.00 0.00 58 1014.9
20260510104503 61 47 11.3 19.1 0.00 0.00 0.00 59 1014.9
20260510103624 62 49 11.3 19.1 0.00 0.00 0.00 57 1015.0
20260510102703 63 88 7.8 19.1 0.00 0.00 0.00 58 1015.1
20260510101824 61 55 9.6 18.2 0.00 0.00 0.00 60 1015.0
20260510100903 61 48 10.4 19.1 0.00 0.00 0.00 59 1015.0
20260510100003 61 40 7.8 13.9 0.00 0.00 0.00 61 1015.2
20260510095403 60 33 7.8 13.9 0.00 0.00 0.00 63 1015.2
20260510094503 60 40 8.7 16.5 0.00 0.00 0.00 65 1015.3
20260510093603 59 35 8.7 17.4 0.00 0.00 0.00 67 1015.4
20260510092703 58 43 7.8 17.4 0.00 0.00 0.00 69 1015.3
20260510091803 57 39 7.8 18.2 0.00 0.00 0.00 70 1015.4
20260510090903 57 41 7.8 13.9 0.00 0.00 0.00 71 1015.5
20260510090003 56 27 7.8 16.5 0.00 0.00 0.00 71 1015.6
20260510085403 56 28 7.8 14.8 0.00 0.00 0.00 72 1015.4
20260510084503 56 37 7.8 16.5 0.00 0.00 0.00 72 1015.7
20260510083603 55 38 7.8 16.5 0.00 0.00 0.00 73 1015.5
20260510082703 55 37 7.0 14.8 0.00 0.00 0.00 74 1015.6
20260510081803 54 44 8.7 18.2 0.00 0.00 0.00 74 1015.6
20260510080903 53 51 8.7 18.2 0.00 0.00 0.00 74 1015.5
20260510080003 54 50 7.8 14.8 0.00 0.00 0.00 74 1015.5
20260510075403 54 48 7.0 17.4 0.00 0.00 0.00 74 1015.5
20260510074524 54 47 8.7 16.5 0.00 0.00 0.00 74 1015.5
20260510073603 55 46 7.8 15.6 0.00 0.00 0.00 74 1015.6
20260510072703 54 47 9.6 16.5 0.00 0.00 0.00 75 1015.4
20260510071803 53 42 8.7 16.5 0.00 0.00 0.00 77 1015.4
20260510070903 52 48 7.8 16.5 0.00 0.00 0.00 78 1015.4
20260510070003 52 42 8.7 18.2 0.00 0.00 0.00 79 1015.3
20260510065403 52 39 8.7 16.5 0.00 0.00 0.00 79 1015.2
20260510064503 51 45 7.8 17.4 0.00 0.00 0.00 80 1015.2
20260510063606 51 43 7.8 17.4 0.00 0.00 0.00 80 1015.3
20260510062706 50 39 5.2 10.4 0.00 0.00 0.00 80 1015.4
20260510061806 50 37 6.1 14.8 0.00 0.00 0.00 80 1015.4
20260510060906 50 40 6.1 12.2 0.00 0.00 0.00 80 1015.2
20260510060006 50 33 5.2 12.2 0.00 0.00 0.00 80 1015.2
20260510055406 49 31 5.2 12.2 0.00 0.00 0.00 80 1015.3
20260510054506 49 47 6.1 10.4 0.00 0.00 0.00 80 1015.3
20260510053606 49 51 4.3 10.4 0.00 0.00 0.00 79 1015.4
20260510052706 49 40 4.3 9.6 0.00 0.00 0.00 79 1015.3
20260510051806 49 39 5.2 13.0 0.00 0.00 0.00 78 1015.3
20260510050906 49 37 5.2 12.2 0.00 0.00 0.00 78 1015.4
20260510050006 50 39 5.2 11.3 0.00 0.00 0.00 78 1015.3
20260510045406 50 37 5.2 12.2 0.00 0.00 0.00 77 1015.4
20260510044505 50 32 5.2 13.0 0.00 0.00 0.00 77 1015.3
20260510043605 50 36 5.2 10.4 0.00 0.00 0.00 76 1015.3
20260510042705 51 29 5.2 9.6 0.00 0.00 0.00 76 1015.2
20260510041827 51 41 4.3 8.7 0.00 0.00 0.00 75 1015.1
20260510040905 51 35 5.2 9.6 0.00 0.00 0.00 74 1015.3
20260510040006 52 39 5.2 11.3 0.00 0.00 0.00 74 1015.4
20260510035405 52 42 5.2 12.2 0.00 0.00 0.00 73 1015.4
20260510034506 52 35 4.3 9.6 0.00 0.00 0.00 72 1015.3
20260510033605 52 32 5.2 12.2 0.00 0.00 0.00 70 1015.4
20260510032705 52 42 5.2 12.2 0.00 0.00 0.00 69 1015.4
20260510031805 52 41 6.1 13.9 0.00 0.00 0.00 68 1015.6
20260510030905 53 35 5.2 13.9 0.00 0.00 0.00 67 1015.5
20260510030005 53 31 6.1 12.2 0.00 0.00 0.00 66 1015.3
20260510025405 54 34 5.2 10.4 0.00 0.00 0.00 65 1015.5
20260510024505 54 29 4.3 10.4 0.00 0.00 0.00 65 1015.4
20260510023605 55 39 4.3 9.6 0.00 0.00 0.00 64 1015.4
20260510022726 55 41 5.2 10.4 0.00 0.00 0.00 63 1015.5
20260510021805 55 47 5.2 13.0 0.00 0.00 0.00 62 1015.4
20260510020905 55 44 6.1 11.3 0.00 0.00 0.00 62 1015.4
20260510020005 56 40 6.1 13.9 0.00 0.00 0.00 60 1015.4
20260510015426 56 42 4.3 10.4 0.00 0.00 0.00 60 1015.5
20260510014505 56 43 4.3 8.7 0.00 0.00 0.00 59 1015.4
20260510013626 56 46 5.2 10.4 0.00 0.00 0.00 59 1015.4
20260510012705 56 46 5.2 9.6 0.00 0.00 0.00 58 1015.3
20260510011805 57 48 6.1 11.3 0.00 0.00 0.00 58 1015.4
20260510010905 57 50 7.8 18.2 0.00 0.00 0.00 58 1015.5
20260510010005 57 49 5.2 9.6 0.00 0.00 0.00 57 1015.4
20260510005405 57 50 5.2 10.4 0.00 0.00 0.00 57 1015.4
20260510004505 57 46 6.1 11.3 0.00 0.00 0.00 56 1015.5
20260510003605 57 49 5.2 10.4 0.00 0.00 0.00 56 1015.5
20260510002705 57 43 5.2 9.6 0.00 0.00 0.00 55 1015.4
20260510001805 58 39 5.2 9.6 0.00 0.00 0.00 55 1015.4
20260510000905 58 41 4.3 9.6 0.00 0.00 0.00 55 1015.4
20260510000005 58 37 4.3 9.6 0.00 0.00 0.00 56 1015.5
20260509235405 58 39 4.3 8.7 0.00 0.00 0.00 56 1015.4
20260509234505 58 48 4.3 9.6 0.00 0.00 0.00 56 1015.5
20260509233605 59 47 4.3 10.4 0.00 0.00 0.00 56 1015.4
20260509232705 59 47 5.2 10.4 0.00 0.00 0.00 56 1015.3
20260509231826 59 47 4.3 8.7 0.00 0.00 0.00 57 1015.3
20260509230926 59 46 3.5 7.8 0.00 0.00 0.00 57 1015.4
20260509230005 60 56 4.3 9.6 0.00 0.00 0.00 57 1015.4
20260509225405 59 56 5.2 9.6 0.00 0.00 0.00 57 1015.3
20260509224505 60 42 4.3 9.6 0.00 0.00 0.00 59 1015.1
20260509223605 60 46 5.2 10.4 0.00 0.00 0.00 60 1015.0
20260509222705 60 44 3.5 7.8 0.00 0.00 0.00 62 1015.1
20260509221826 60 48 3.5 7.0 0.00 0.00 0.00 62 1015.0
20260509220905 60 58 4.3 9.6 0.00 0.00 0.00 63 1015.0
20260509220005 60 58 3.5 7.8 0.00 0.00 0.00 67 1015.0
20260509215405 59 58 3.5 9.6 0.00 0.00 0.00 70 1014.9
20260509214526 59 50 2.6 7.8 0.00 0.00 0.00 72 1014.9
20260509213605 59 54 2.6 7.8 0.00 0.00 0.00 73 1014.9
20260509212726 59 79 0.9 4.3 0.00 0.00 0.00 73 1014.9
20260509211805 59 82 0.0 1.7 0.00 0.00 0.00 72 1014.9
20260509210905 59 0 0.0 0.9 0.00 0.00 0.00 72 1014.8
20260509210026 60 159 0.0 1.7 0.00 0.00 0.00 72 1014.9
20260509205405 60 150 0.0 3.5 0.00 0.00 0.00 71 1014.9
20260509204505 60 19 0.0 2.6 0.00 0.00 0.00 70 1014.7
20260509203626 60 37 0.9 3.5 0.00 0.00 0.00 69 1014.5
20260509202705 61 0 0.0 0.9 0.00 0.00 0.00 68 1014.4
20260509201805 61 0 0.0 0.9 0.00 0.00 0.00 68 1014.3
20260509200925 62 55 0.9 2.6 0.00 0.00 0.00 67 1014.2
20260509200005 62 55 0.9 2.6 0.00 0.00 0.00 66 1014.2
20260509195425 62 55 0.0 1.7 0.00 0.00 0.00 66 1014.2
20260509194505 63 55 0.0 1.7 0.00 0.00 0.00 65 1014.3
20260509193605 63 55 0.0 1.7 0.00 0.00 0.00 64 1014.1
20260509192725 64 55 0.9 1.7 0.00 0.00 0.00 63 1014.0
20260509191805 64 55 0.0 1.7 0.00 0.00 0.00 62 1013.9
20260509190905 64 55 0.9 2.6 0.00 0.00 0.00 61 1014.1
20260509190005 65 57 0.9 2.6 0.00 0.00 0.00 61 1014.0
20260509185426 65 51 1.7 2.6 0.00 0.00 0.00 61 1013.9
20260509184504 66 44 1.7 2.6 0.00 0.00 0.00 60 1014.0
20260509183625 66 91 1.7 2.6 0.00 0.00 0.00 58 1014.0
20260509182725 66 98 0.9 2.6 0.00 0.00 0.00 57 1014.0
20260509181804 66 99 1.7 3.5 0.00 0.00 0.00 57 1013.9
20260509180904 67 112 2.6 5.2 0.00 0.00 0.00 56 1014.0
20260509180025 67 102 1.7 5.2 0.00 0.00 0.00 55 1014.0